"Sample Date","Sample Time","Sample Value","Units","Flow Rate","Sample Interval","Number Channels","Micron Size 0","Counts/Channel 0","Micron Size 1","Counts/Channel 1","Micron Size 2","Counts/Channel 2","Micron Size 3","Counts/Channel 3","Micron Size 4","Counts/Channel 4","Micron Size 5","Counts/Channel 5","Micron Size 6","Counts/Channel 6","Micron Size 7","Counts/Channel 7","Micron Size 8","Counts/Channel 8","Micron Size 9","Counts/Channel 9","Micron Size 10","Counts/Channel 10","Micron Size 11","Counts/Channel 11","Micron Size 12","Counts/Channel 12","Micron Size 13","Counts/Channel 13","Micron Size 14","Counts/Channel 14","Micron Size 15","Counts/Channel 15","Micron Size 16","Counts/Channel 16","Micron Size 17","Counts/Channel 17","Micron Size 18","Counts/Channel 18","Micron Size 19","Counts/Channel 19","Micron Size 20","Counts/Channel 20","Micron Size 21","Counts/Channel 21","Micron Size 22","Counts/Channel 22","Micron Size 23","Counts/Channel 23","Micron Size 24","Counts/Channel 24","Micron Size 25","Counts/Channel 25","Micron Size 26","Counts/Channel 26","Micron Size 27","Counts/Channel 27","Micron Size 28","Counts/Channel 28","Micron Size 29","Counts/Channel 29","Micron Size 30","Counts/Channel 30","Micron Size 31","Counts/Channel 31"
"04/02/08","07:00:01",15199.000,"cc",28397.967,6.00,6,0.100,13692.000,0.200,518.000,0.300,368.000,0.500,444.000,1.000,177.000,5.000,0
"04/02/08","07:00:07",15274.000,"cc",28315.297,6.00,6,0.100,13778.000,0.200,501.000,0.300,366.000,0.500,461.000,1.000,168.000,5.000,0
"04/02/08","07:00:13",15467.000,"cc",28296.441,6.00,6,0.100,13970.000,0.200,523.000,0.300,353.000,0.500,451.000,1.000,170.000,5.000,0
"04/02/08","07:00:19",15080.000,"cc",28307.826,6.00,6,0.100,13578.000,0.200,524.000,0.300,359.000,0.500,428.000,1.000,191.000,5.000,0
"04/02/08","07:00:25",15359.000,"cc",28371.766,6.00,6,0.100,13965.000,0.200,499.000,0.300,331.000,0.500,407.000,1.000,157.000,5.000,0
"04/02/08","07:00:31",15100.000,"cc",28326.059,6.00,6,0.100,13663.000,0.200,494.000,0.300,325.000,0.500,433.000,1.000,185.000,5.000,0
"04/02/08","07:00:37",15420.000,"cc",28306.875,6.00,6,0.100,13804.000,0.200,522.000,0.300,414.000,0.500,498.000,1.000,182.000,5.000,0
"04/02/08","07:00:43",15240.000,"cc",28347.098,6.00,6,0.100,13676.000,0.200,537.000,0.300,360.000,0.500,486.000,1.000,181.000,5.000,0
"04/02/08","07:00:49",14959.000,"cc",28309.018,6.00,6,0.100,13499.000,0.200,465.000,0.300,349.000,0.500,469.000,1.000,177.000,5.000,0
"04/02/08","07:00:55",15210.000,"cc",28279.629,6.00,6,0.100,13725.000,0.200,493.000,0.300,376.000,0.500,429.000,1.000,187.000,5.000,0
"04/02/08","07:01:01",14930.000,"cc",28340.815,6.00,6,0.100,13473.000,0.200,521.000,0.300,306.000,0.500,452.000,1.000,178.000,5.000,0
"04/02/08","07:01:07",14870.000,"cc",28365.777,6.00,6,0.100,13421.000,0.200,506.000,0.300,316.000,0.500,449.000,1.000,178.000,5.000,0
"04/02/08","07:01:13",15089.000,"cc",28257.055,6.00,6,0.100,13578.000,0.200,511.000,0.300,340.000,0.500,456.000,1.000,204.000,5.000,0
"04/02/08","07:01:19",15002.000,"cc",28264.811,6.00,6,0.100,13516.000,0.200,511.000,0.300,328.000,0.500,457.000,1.000,190.000,5.000,0
"04/02/08","07:01:25",15006.000,"cc",28351.758,6.00,6,0.100,13596.000,0.200,487.000,0.300,336.000,0.500,423.000,1.000,164.000,5.000,0
"04/02/08","07:01:31",14879.000,"cc",28293.895,6.00,6,0.100,13454.000,0.200,473.000,0.300,317.000,0.500,441.000,1.000,194.000,5.000,0
"04/02/08","07:01:37",15108.000,"cc",28313.373,6.00,6,0.100,13706.000,0.200,503.000,0.300,313.000,0.500,414.000,1.000,172.000,5.000,0
"04/02/08","07:01:43",15072.000,"cc",28324.129,6.00,6,0.100,13580.000,0.200,520.000,0.300,348.000,0.500,447.000,1.000,177.000,5.000,0
"04/02/08","07:01:49",14922.000,"cc",28260.670,6.00,6,0.100,13456.000,0.200,519.000,0.300,320.000,0.500,453.000,1.000,174.000,5.000,0
"04/02/08","07:01:55",15165.000,"cc",28300.992,6.00,6,0.100,13756.000,0.200,496.000,0.300,348.000,0.500,397.000,1.000,168.000,5.000,0
"04/02/08","07:02:01",15137.000,"cc",28311.725,6.00,6,0.100,13777.000,0.200,477.000,0.300,321.000,0.500,398.000,1.000,164.000,5.000,0
"04/02/08","07:02:07",14797.000,"cc",28395.391,6.00,6,0.100,13434.000,0.200,455.000,0.300,313.000,0.500,416.000,1.000,179.000,5.000,0
"04/02/08","07:02:13",15302.000,"cc",28319.967,6.00,6,0.100,13882.000,0.200,496.000,0.300,318.000,0.500,411.000,1.000,195.000,5.000,0
"04/02/08","07:02:19",15183.000,"cc",28290.678,6.00,6,0.100,13789.000,0.200,491.000,0.300,310.000,0.500,411.000,1.000,182.000,5.000,0
"04/02/08","07:02:25",15005.000,"cc",28236.158,6.00,6,0.100,13614.000,0.200,512.000,0.300,300.000,0.500,411.000,1.000,168.000,5.000,0
"04/02/08","07:02:31",15208.000,"cc",28330.963,6.00,6,0.100,13770.000,0.200,471.000,0.300,351.000,0.500,438.000,1.000,178.000,5.000,0
"04/02/08","07:02:37",15071.000,"cc",28291.621,6.00,6,0.100,13703.000,0.200,492.000,0.300,332.000,0.500,402.000,1.000,142.000,5.000,0
"04/02/08","07:02:43",15588.000,"cc",28237.563,6.00,6,0.100,14208.000,0.200,448.000,0.300,309.000,0.500,431.000,1.000,192.000,5.000,0
"04/02/08","07:02:49",15376.000,"cc",28480.303,6.00,6,0.100,13921.000,0.200,525.000,0.300,335.000,0.500,428.000,1.000,167.000,5.000,0
"04/02/08","07:02:55",15465.000,"cc",28448.699,6.00,6,0.100,14045.000,0.200,490.000,0.300,306.000,0.500,443.000,1.000,181.000,5.000,0
"04/02/08","07:03:01",15559.000,"cc",28294.102,6.00,6,0.100,14044.000,0.200,536.000,0.300,368.000,0.500,439.000,1.000,172.000,5.000,0
"04/02/08","07:03:07",15397.000,"cc",28292.553,6.00,6,0.100,13849.000,0.200,568.000,0.300,328.000,0.500,479.000,1.000,173.000,5.000,0
"04/02/08","07:03:13",15860.000,"cc",28439.502,6.00,6,0.100,14317.000,0.200,527.000,0.300,378.000,0.500,431.000,1.000,207.000,5.000,0
"04/02/08","07:03:19",15391.000,"cc",28451.305,6.00,6,0.100,13920.000,0.200,505.000,0.300,349.000,0.500,434.000,1.000,183.000,5.000,0
"04/02/08","07:03:25",15621.000,"cc",28412.422,6.00,6,0.100,14061.000,0.200,484.000,0.300,376.000,0.500,496.000,1.000,204.000,5.000,0
"04/02/08","07:03:31",15643.000,"cc",28321.768,6.00,6,0.100,14205.000,0.200,514.000,0.300,343.000,0.500,405.000,1.000,176.000,5.000,0
"04/02/08","07:03:37",15837.000,"cc",28368.785,6.00,6,0.100,14358.000,0.200,501.000,0.300,346.000,0.500,451.000,1.000,181.000,5.000,0
"04/02/08","07:03:43",15884.000,"cc",28359.852,6.00,6,0.100,14388.000,0.200,531.000,0.300,350.000,0.500,430.000,1.000,185.000,5.000,0
"04/02/08","07:03:49",15847.000,"cc",28264.873,6.00,6,0.100,14340.000,0.200,500.000,0.300,366.000,0.500,446.000,1.000,195.000,5.000,0
"04/02/08","07:03:55",15962.000,"cc",28344.984,6.00,6,0.100,14410.000,0.200,576.000,0.300,353.000,0.500,448.000,1.000,175.000,5.000,0
"04/02/08","07:04:01",15939.000,"cc",28264.391,6.00,6,0.100,14327.000,0.200,528.000,0.300,358.000,0.500,512.000,1.000,214.000,5.000,0
"04/02/08","07:04:07",15765.000,"cc",28309.998,6.00,6,0.100,14124.000,0.200,552.000,0.300,409.000,0.500,489.000,1.000,191.000,5.000,0
"04/02/08","07:04:13",15591.000,"cc",28340.574,6.00,6,0.100,14094.000,0.200,564.000,0.300,358.000,0.500,414.000,1.000,161.000,5.000,0
"04/02/08","07:04:19",15884.000,"cc",28237.240,6.00,6,0.100,14293.000,0.200,535.000,0.300,398.000,0.500,454.000,1.000,204.000,5.000,0
"04/02/08","07:04:25",16164.000,"cc",28295.479,6.00,6,0.100,14432.000,0.200,591.000,0.300,421.000,0.500,515.000,1.000,205.000,5.000,0
"04/02/08","07:04:31",15845.000,"cc",28386.816,6.00,6,0.100,14319.000,0.200,552.000,0.300,347.000,0.500,435.000,1.000,192.000,5.000,0
"04/02/08","07:04:37",15773.000,"cc",28273.721,6.00,6,0.100,14276.000,0.200,519.000,0.300,349.000,0.500,459.000,1.000,170.000,5.000,0
"04/02/08","07:04:43",16083.000,"cc",28269.365,6.00,6,0.100,14505.000,0.200,524.000,0.300,399.000,0.500,467.000,1.000,188.000,5.000,0
"04/02/08","07:04:49",15963.000,"cc",28297.770,6.00,6,0.100,14293.000,0.200,574.000,0.300,415.000,0.500,503.000,1.000,178.000,5.000,0
"04/02/08","07:04:55",15458.000,"cc",28287.615,6.00,6,0.100,13986.000,0.200,512.000,0.300,352.000,0.500,456.000,1.000,152.000,5.000,0
"04/02/08","07:05:01",15896.000,"cc",28238.975,6.00,6,0.100,14206.000,0.200,582.000,0.300,418.000,0.500,509.000,1.000,181.000,5.000,0
"04/02/08","07:05:07",15972.000,"cc",28253.162,6.00,6,0.100,14325.000,0.200,551.000,0.300,404.000,0.500,507.000,1.000,185.000,5.000,0
"04/02/08","07:05:13",15782.000,"cc",28317.369,6.00,6,0.100,14184.000,0.200,526.000,0.300,364.000,0.500,533.000,1.000,175.000,5.000,0
"04/02/08","07:05:19",16037.000,"cc",28201.863,6.00,6,0.100,14290.000,0.200,598.000,0.300,440.000,0.500,529.000,1.000,180.000,5.000,0
"04/02/08","07:05:25",15996.000,"cc",28324.852,6.00,6,0.100,14215.000,0.200,606.000,0.300,437.000,0.500,531.000,1.000,207.000,5.000,0
"04/02/08","07:05:31",16858.000,"cc",28304.147,6.00,6,0.100,14792.000,0.200,716.000,0.300,509.000,0.500,610.000,1.000,231.000,5.000,0
"04/02/08","07:05:37",18382.000,"cc",28256.736,6.00,6,0.100,16352.000,0.200,799.000,0.300,487.000,0.500,543.000,1.000,201.000,5.000,0
"04/02/08","07:05:43",31658.000,"cc",28277.625,6.00,6,0.100,27420.000,0.200,2208.000,0.300,886.000,0.500,849.000,1.000,295.000,5.000,0
"04/02/08","07:05:49",27563.000,"cc",28300.523,6.00,6,0.100,23095.000,0.200,1913.000,0.300,1023.000,0.500,1122.000,1.000,410.000,5.000,0
"04/02/08","07:05:55",47661.000,"cc",28321.869,6.00,6,0.100,41995.000,0.200,3495.000,0.300,948.000,0.500,895.000,1.000,328.000,5.000,0
"04/02/08","07:06:01",95772.000,"cc",28331.338,6.00,6,0.100,86972.000,0.200,7264.000,0.300,740.000,0.500,559.000,1.000,237.000,5.000,0
"04/02/08","07:06:07",188367.000,"cc",28340.697,6.00,6,0.100,169724.000,0.200,16832.000,0.300,1057.000,0.500,556.000,1.000,198.000,5.000,0
"04/02/08","07:06:13",88128.000,"cc",28314.385,6.00,6,0.100,80112.000,0.200,6511.000,0.300,708.000,0.500,567.000,1.000,230.000,5.000,0
"04/02/08","07:06:19",73697.000,"cc",28356.445,6.00,6,0.100,66996.000,0.200,5286.000,0.300,640.000,0.500,581.000,1.000,194.000,5.000,0
"04/02/08","07:06:25",69257.000,"cc",28310.731,6.00,6,0.100,62905.000,0.200,4953.000,0.300,627.000,0.500,552.000,1.000,220.000,5.000,0
"04/02/08","07:06:31",80666.000,"cc",28275.580,6.00,6,0.100,73146.000,0.200,5832.000,0.300,759.000,0.500,657.000,1.000,272.000,5.000,0
"04/02/08","07:06:37",99611.000,"cc",28290.408,6.00,6,0.100,90415.000,0.200,7605.000,0.300,759.000,0.500,595.000,1.000,237.000,5.000,0
"04/02/08","07:06:43",105816.000,"cc",28387.783,6.00,6,0.100,96150.000,0.200,8082.000,0.300,790.000,0.500,581.000,1.000,213.000,5.000,0
"04/02/08","07:06:49",121430.000,"cc",28291.527,6.00,6,0.100,110423.000,0.200,9461.000,0.300,777.000,0.500,551.000,1.000,218.000,5.000,0
"04/02/08","07:06:55",194632.000,"cc",28318.193,6.00,6,0.100,175603.000,0.200,17189.000,0.300,1077.000,0.500,571.000,1.000,192.000,5.000,0
"04/02/08","07:07:01",259015.000,"cc",28316.621,6.00,6,0.100,233014.000,0.200,23920.000,0.300,1314.000,0.500,548.000,1.000,219.000,5.000,0
"04/02/08","07:07:07",275479.000,"cc",28261.768,6.00,6,0.100,247592.000,0.200,25751.000,0.300,1344.000,0.500,575.000,1.000,217.000,5.000,0
"04/02/08","07:07:13",324526.000,"cc",28290.395,6.00,6,0.100,289745.000,0.200,32377.000,0.300,1568.000,0.500,600.000,1.000,235.000,5.000,1.000
"04/02/08","07:07:19",269848.000,"cc",28376.393,6.00,6,0.100,242568.000,0.200,24985.000,0.300,1398.000,0.500,651.000,1.000,246.000,5.000,0
"04/02/08","07:07:25",280689.000,"cc",28330.094,6.00,6,0.100,251793.000,0.200,26587.000,0.300,1436.000,0.500,625.000,1.000,248.000,5.000,0
"04/02/08","07:07:31",289833.000,"cc",28324.135,6.00,6,0.100,259078.000,0.200,28305.000,0.300,1581.000,0.500,649.000,1.000,220.000,5.000,0
"04/02/08","07:07:37",266934.000,"cc",28343.848,6.00,6,0.100,229891.000,0.200,34351.000,0.300,1775.000,0.500,645.000,1.000,272.000,5.000,0
"04/02/08","07:07:43",253617.000,"cc",28338.047,6.00,6,0.100,225847.000,0.200,24711.000,0.300,1715.000,0.500,947.000,1.000,397.000,5.000,0
"04/02/08","07:07:49",303010.000,"cc",28244.176,6.00,6,0.100,268661.000,0.200,30467.000,0.300,2270.000,0.500,1190.000,1.000,422.000,5.000,0
"04/02/08","07:07:55",177029.000,"cc",28334.408,6.00,6,0.100,158582.000,0.200,15554.000,0.300,1441.000,0.500,1031.000,1.000,421.000,5.000,0
"04/02/08","07:08:01",156029.000,"cc",28361.361,6.00,6,0.100,138937.000,0.200,13747.000,0.300,1647.000,0.500,1212.000,1.000,486.000,5.000,0
"04/02/08","07:08:07",139977.000,"cc",28291.979,6.00,6,0.100,124095.000,0.200,12282.000,0.300,1670.000,0.500,1405.000,1.000,525.000,5.000,0
"04/02/08","07:08:13",95887.000,"cc",28326.481,6.00,6,0.100,84530.000,0.200,7926.000,0.300,1524.000,0.500,1396.000,1.000,511.000,5.000,0
"04/02/08","07:08:19",146746.000,"cc",28313.658,6.00,6,0.100,131116.000,0.200,12249.000,0.300,1620.000,0.500,1286.000,1.000,475.000,5.000,0
"04/02/08","07:08:25",88490.000,"cc",28224.500,6.00,6,0.100,75305.000,0.200,7868.000,0.300,2325.000,0.500,2154.000,1.000,838.000,5.000,0
"04/02/08","07:08:31",112091.000,"cc",28288.051,6.00,6,0.100,98370.000,0.200,9627.000,0.300,1859.000,0.500,1642.000,1.000,593.000,5.000,0
"04/02/08","07:08:37",83343.000,"cc",28398.324,6.00,6,0.100,70284.000,0.200,7530.000,0.300,2419.000,0.500,2250.000,1.000,860.000,5.000,0
"04/02/08","07:08:43",101181.000,"cc",28335.535,6.00,6,0.100,88128.000,0.200,8681.000,0.300,1946.000,0.500,1742.000,1.000,684.000,5.000,0
"04/02/08","07:08:49",44544.000,"cc",28317.508,6.00,6,0.100,37270.000,0.200,3637.000,0.300,1510.000,0.500,1547.000,1.000,580.000,5.000,0
"04/02/08","07:08:55",49085.000,"cc",28405.928,6.00,6,0.100,42889.000,0.200,3621.000,0.300,1056.000,0.500,1101.000,1.000,418.000,5.000,0
"04/02/08","07:09:01",54734.000,"cc",28271.625,6.00,6,0.100,48673.000,0.200,4013.000,0.300,880.000,0.500,824.000,1.000,344.000,5.000,0
"04/02/08","07:09:07",42524.000,"cc",28276.875,6.00,6,0.100,38113.000,0.200,2791.000,0.300,656.000,0.500,679.000,1.000,285.000,5.000,0
"04/02/08","07:09:13",35204.000,"cc",28321.111,6.00,6,0.100,31703.000,0.200,2080.000,0.300,588.000,0.500,614.000,1.000,219.000,5.000,0
"04/02/08","07:09:19",26526.000,"cc",28307.725,6.00,6,0.100,22914.000,0.200,1652.000,0.300,822.000,0.500,852.000,1.000,286.000,5.000,0
"04/02/08","07:09:25",26276.000,"cc",28342.291,6.00,6,0.100,23319.000,0.200,1489.000,0.300,608.000,0.500,605.000,1.000,255.000,5.000,0
"04/02/08","07:09:31",24913.000,"cc",28287.602,6.00,6,0.100,22306.000,0.200,1318.000,0.300,501.000,0.500,596.000,1.000,192.000,5.000,0
"04/02/08","07:09:37",28737.000,"cc",28316.201,6.00,6,0.100,25261.000,0.200,1806.000,0.300,647.000,0.500,735.000,1.000,288.000,5.000,0
"04/02/08","07:09:43",27820.000,"cc",28334.938,6.00,6,0.100,24807.000,0.200,1569.000,0.300,583.000,0.500,611.000,1.000,250.000,5.000,0
"04/02/08","07:09:49",25169.000,"cc",28281.768,6.00,6,0.100,20784.000,0.200,1873.000,0.300,1024.000,0.500,1094.000,1.000,394.000,5.000,0
"04/02/08","07:09:55",19713.000,"cc",28322.563,6.00,6,0.100,16853.000,0.200,1132.000,0.300,678.000,0.500,786.000,1.000,264.000,5.000,0
"04/02/08","07:10:01",21228.000,"cc",28317.656,6.00,6,0.100,17572.000,0.200,1463.000,0.300,884.000,0.500,938.000,1.000,371.000,5.000,0
"04/02/08","07:10:07",19271.000,"cc",28321.709,6.00,6,0.100,16582.000,0.200,1065.000,0.300,679.000,0.500,677.000,1.000,268.000,5.000,0
"04/02/08","07:10:13",18783.000,"cc",28318.385,6.00,6,0.100,16358.000,0.200,940.000,0.300,611.000,0.500,629.000,1.000,245.000,5.000,0
"04/02/08","07:10:19",19560.000,"cc",28328.846,6.00,6,0.100,16996.000,0.200,981.000,0.300,633.000,0.500,697.000,1.000,253.000,5.000,0
"04/02/08","07:10:25",18811.000,"cc",28257.867,6.00,6,0.100,16061.000,0.200,1001.000,0.300,695.000,0.500,777.000,1.000,277.000,5.000,0
"04/02/08","07:10:31",20224.000,"cc",28323.867,6.00,6,0.100,16996.000,0.200,1244.000,0.300,827.000,0.500,833.000,1.000,324.000,5.000,0
"04/02/08","07:10:37",18074.000,"cc",28306.191,6.00,6,0.100,15883.000,0.200,851.000,0.300,534.000,0.500,583.000,1.000,223.000,5.000,0
"04/02/08","07:10:43",20916.000,"cc",28332.252,6.00,6,0.100,16984.000,0.200,1458.000,0.300,1014.000,0.500,1062.000,1.000,398.000,5.000,0
"04/02/08","07:10:49",20835.000,"cc",28351.758,6.00,6,0.100,17042.000,0.200,1442.000,0.300,934.000,0.500,1033.000,1.000,384.000,5.000,0
"04/02/08","07:10:55",18010.000,"cc",28309.756,6.00,6,0.100,15859.000,0.200,813.000,0.300,535.000,0.500,580.000,1.000,223.000,5.000,0
"04/02/08","07:11:01",19837.000,"cc",28341.953,6.00,6,0.100,17467.000,0.200,954.000,0.300,534.000,0.500,658.000,1.000,224.000,5.000,0
"04/02/08","07:11:07",22916.000,"cc",28312.910,6.00,6,0.100,17510.000,0.200,2011.000,0.300,1469.000,0.500,1400.000,1.000,526.000,5.000,0
"04/02/08","07:11:13",19667.000,"cc",28335.795,6.00,6,0.100,16382.000,0.200,1284.000,0.300,842.000,0.500,841.000,1.000,318.000,5.000,0
"04/02/08","07:11:19",22861.000,"cc",28264.518,6.00,6,0.100,17755.000,0.200,1964.000,0.300,1338.000,0.500,1303.000,1.000,501.000,5.000,0
"04/02/08","07:11:25",25156.000,"cc",28336.904,6.00,6,0.100,18617.000,0.200,2441.000,0.300,1773.000,0.500,1667.000,1.000,658.000,5.000,0
"04/02/08","07:11:31",24417.000,"cc",28361.402,6.00,6,0.100,18162.000,0.200,2319.000,0.300,1769.000,0.500,1635.000,1.000,532.000,5.000,0
"04/02/08","07:11:37",24210.000,"cc",28278.680,6.00,6,0.100,19711.000,0.200,1828.000,0.300,1125.000,0.500,1117.000,1.000,429.000,5.000,0
"04/02/08","07:11:43",19469.000,"cc",28255.615,6.00,6,0.100,16637.000,0.200,1046.000,0.300,731.000,0.500,759.000,1.000,296.000,5.000,0
"04/02/08","07:11:49",20542.000,"cc",28366.205,6.00,6,0.100,17302.000,0.200,1267.000,0.300,813.000,0.500,850.000,1.000,310.000,5.000,0
"04/02/08","07:11:55",18054.000,"cc",28319.281,6.00,6,0.100,15535.000,0.200,925.000,0.300,643.000,0.500,692.000,1.000,259.000,5.000,0
"04/02/08","07:12:01",21065.000,"cc",28304.477,6.00,6,0.100,18212.000,0.200,1143.000,0.300,687.000,0.500,725.000,1.000,298.000,5.000,0
"04/02/08","07:12:07",20421.000,"cc",28314.178,6.00,6,0.100,16592.000,0.200,1378.000,0.300,1023.000,0.500,1056.000,1.000,372.000,5.000,0
"04/02/08","07:12:13",17650.000,"cc",28371.000,6.00,6,0.100,15599.000,0.200,729.000,0.300,521.000,0.500,597.000,1.000,204.000,5.000,0
"04/02/08","07:12:19",18014.000,"cc",28241.785,6.00,6,0.100,16164.000,0.200,731.000,0.300,446.000,0.500,501.000,1.000,172.000,5.000,0
"04/02/08","07:12:25",18184.000,"cc",28352.481,6.00,6,0.100,16250.000,0.200,753.000,0.300,466.000,0.500,531.000,1.000,184.000,5.000,0
"04/02/08","07:12:31",17485.000,"cc",28310.072,6.00,6,0.100,15584.000,0.200,744.000,0.300,486.000,0.500,501.000,1.000,170.000,5.000,0
"04/02/08","07:12:37",18807.000,"cc",28330.816,6.00,6,0.100,16092.000,0.200,1043.000,0.300,665.000,0.500,727.000,1.000,280.000,5.000,0
"04/02/08","07:12:43",19108.000,"cc",28345.162,6.00,6,0.100,16657.000,0.200,949.000,0.300,629.000,0.500,646.000,1.000,227.000,5.000,0
"04/02/08","07:12:49",18595.000,"cc",28333.514,6.00,6,0.100,16549.000,0.200,855.000,0.300,484.000,0.500,507.000,1.000,200.000,5.000,0
"04/02/08","07:12:55",18426.000,"cc",28326.367,6.00,6,0.100,16417.000,0.200,811.000,0.300,484.000,0.500,545.000,1.000,169.000,5.000,0
"04/02/08","07:13:01",19055.000,"cc",28338.668,6.00,6,0.100,16971.000,0.200,876.000,0.300,479.000,0.500,539.000,1.000,190.000,5.000,0
"04/02/08","07:13:07",18769.000,"cc",28283.945,6.00,6,0.100,16630.000,0.200,851.000,0.300,504.000,0.500,593.000,1.000,191.000,5.000,0
"04/02/08","07:13:13",18396.000,"cc",28305.117,6.00,6,0.100,16109.000,0.200,923.000,0.300,541.000,0.500,604.000,1.000,219.000,5.000,0
"04/02/08","07:13:19",19417.000,"cc",28340.652,6.00,6,0.100,17222.000,0.200,931.000,0.300,487.000,0.500,570.000,1.000,207.000,5.000,0
"04/02/08","07:13:25",21481.000,"cc",28271.561,6.00,6,0.100,18966.000,0.200,1101.000,0.300,556.000,0.500,633.000,1.000,225.000,5.000,0
"04/02/08","07:13:31",20801.000,"cc",28328.842,6.00,6,0.100,18467.000,0.200,971.000,0.300,531.000,0.500,603.000,1.000,229.000,5.000,0
"04/02/08","07:13:37",22035.000,"cc",28335.801,6.00,6,0.100,18561.000,0.200,1410.000,0.300,865.000,0.500,861.000,1.000,338.000,5.000,0
"04/02/08","07:13:43",22958.000,"cc",28295.141,6.00,6,0.100,20275.000,0.200,1228.000,0.300,599.000,0.500,630.000,1.000,226.000,5.000,0
"04/02/08","07:13:49",24875.000,"cc",28289.742,6.00,6,0.100,22535.000,0.200,1247.000,0.300,454.000,0.500,469.000,1.000,170.000,5.000,0
"04/02/08","07:13:55",32226.000,"cc",28294.236,6.00,6,0.100,29218.000,0.200,1821.000,0.300,485.000,0.500,530.000,1.000,172.000,5.000,0
"04/02/08","07:14:01",28787.000,"cc",28381.494,6.00,6,0.100,25762.000,0.200,1654.000,0.300,559.000,0.500,612.000,1.000,200.000,5.000,0
"04/02/08","07:14:07",22894.000,"cc",28303.766,6.00,6,0.100,19339.000,0.200,1494.000,0.300,856.000,0.500,899.000,1.000,306.000,5.000,0
"04/02/08","07:14:13",25336.000,"cc",28340.736,6.00,6,0.100,22404.000,0.200,1424.000,0.300,653.000,0.500,638.000,1.000,217.000,5.000,0
"04/02/08","07:14:19",26739.000,"cc",28317.799,6.00,6,0.100,23823.000,0.200,1486.000,0.300,577.000,0.500,621.000,1.000,232.000,5.000,0
"04/02/08","07:14:25",43274.000,"cc",28340.318,6.00,6,0.100,39192.000,0.200,2665.000,0.300,594.000,0.500,597.000,1.000,226.000,5.000,0
"04/02/08","07:14:31",28254.000,"cc",28307.680,6.00,6,0.100,24615.000,0.200,1768.000,0.300,754.000,0.500,796.000,1.000,321.000,5.000,0
"04/02/08","07:14:37",38125.000,"cc",28317.164,6.00,6,0.100,33736.000,0.200,2497.000,0.300,821.000,0.500,766.000,1.000,305.000,5.000,0
"04/02/08","07:14:43",46455.000,"cc",28258.965,6.00,6,0.100,41462.000,0.200,3012.000,0.300,886.000,0.500,809.000,1.000,286.000,5.000,0
"04/02/08","07:14:49",91140.000,"cc",28411.830,6.00,6,0.100,83284.000,0.200,6281.000,0.300,743.000,0.500,601.000,1.000,231.000,5.000,0
"04/02/08","07:14:55",106420.000,"cc",28261.303,6.00,6,0.100,96992.000,0.200,7834.000,0.300,807.000,0.500,565.000,1.000,222.000,5.000,0
"04/02/08","07:15:01",37310.000,"cc",28291.342,6.00,6,0.100,33090.000,0.200,2495.000,0.300,750.000,0.500,748.000,1.000,227.000,5.000,0
"04/02/08","07:15:07",73852.000,"cc",28399.940,6.00,6,0.100,66497.000,0.200,5461.000,0.300,844.000,0.500,778.000,1.000,272.000,5.000,0
"04/02/08","07:15:13",95967.000,"cc",28217.891,6.00,6,0.100,87420.000,0.200,6911.000,0.300,802.000,0.500,622.000,1.000,212.000,5.000,0
"04/02/08","07:15:19",60497.000,"cc",28337.750,6.00,6,0.100,55179.000,0.200,3982.000,0.300,624.000,0.500,517.000,1.000,195.000,5.000,0
"04/02/08","07:15:25",37640.000,"cc",28305.369,6.00,6,0.100,34286.000,0.200,2153.000,0.300,565.000,0.500,462.000,1.000,174.000,5.000,0
"04/02/08","07:15:31",31355.000,"cc",28301.873,6.00,6,0.100,28506.000,0.200,1743.000,0.300,442.000,0.500,475.000,1.000,189.000,5.000,0
"04/02/08","07:15:37",28823.000,"cc",28360.752,6.00,6,0.100,24872.000,0.200,1893.000,0.300,853.000,0.500,902.000,1.000,303.000,5.000,0
"04/02/08","07:15:43",24001.000,"cc",28290.574,6.00,6,0.100,21146.000,0.200,1367.000,0.300,604.000,0.500,655.000,1.000,229.000,5.000,0
"04/02/08","07:15:49",35052.000,"cc",28271.816,6.00,6,0.100,31576.000,0.200,2135.000,0.300,564.000,0.500,597.000,1.000,180.000,5.000,0
"04/02/08","07:15:55",35449.000,"cc",28303.398,6.00,6,0.100,32010.000,0.200,2090.000,0.300,577.000,0.500,576.000,1.000,196.000,5.000,0
"04/02/08","07:16:01",35820.000,"cc",28315.531,6.00,6,0.100,31015.000,0.200,2478.000,0.300,1003.000,0.500,963.000,1.000,361.000,5.000,0
"04/02/08","07:16:07",42466.000,"cc",28340.904,6.00,6,0.100,37892.000,0.200,2677.000,0.300,771.000,0.500,834.000,1.000,292.000,5.000,0
"04/02/08","07:16:13",30764.000,"cc",28320.834,6.00,6,0.100,27021.000,0.200,1929.000,0.300,719.000,0.500,795.000,1.000,300.000,5.000,0
"04/02/08","07:16:19",29130.000,"cc",28346.172,6.00,6,0.100,25872.000,0.200,1692.000,0.300,637.000,0.500,649.000,1.000,280.000,5.000,0
"04/02/08","07:16:25",31612.000,"cc",28288.555,6.00,6,0.100,28391.000,0.200,1788.000,0.300,617.000,0.500,610.000,1.000,206.000,5.000,0
"04/02/08","07:16:31",50665.000,"cc",28426.432,6.00,6,0.100,46177.000,0.200,3194.000,0.300,551.000,0.500,564.000,1.000,179.000,5.000,0